This is the latest recevied weather packets stored in our database for station/object PA1CG-7. If no packets are shown the sender has not sent any weather packets the latest 10 day(s).
| Time | Temp. | Humidity | Pressure | Rain* | Wind** | Luminosity | Snow |
|---|---|---|---|---|---|---|---|
| 1777974737 | 15.56° C | 59% | 1011.6 hPa | 0 mm | - | - | - |
| 1777974136 | 15.56° C | 60% | 1011.6 hPa | 0 mm | - | - | - |
| 1777973536 | 15.56° C | 58% | 1011.7 hPa | 0 mm | - | - | - |
| 1777972936 | 15.56° C | 61% | 1011.6 hPa | 0 mm | - | - | - |
| 1777972337 | 15° C | 63% | 1011.7 hPa | 0 mm | - | - | - |
| 1777971736 | 15° C | 65% | 1011.7 hPa | 0 mm | - | - | - |
| 1777971137 | 14.44° C | 64% | 1011.7 hPa | 0 mm | - | - | - |
| 1777970537 | 14.44° C | 65% | 1011.7 hPa | 0 mm | - | - | - |
| 1777969936 | 13.89° C | 66% | 1011.8 hPa | 0 mm | - | - | - |
| 1777969336 | 13.89° C | 66% | 1011.8 hPa | 0 mm | - | - | - |
| 1777968737 | 13.89° C | 68% | 1011.7 hPa | 0 mm | - | - | - |
| 1777968137 | 13.33° C | 70% | 1011.6 hPa | 0 mm | - | - | - |
| 1777967537 | 13.33° C | 71% | 1011.6 hPa | 0 mm | - | - | - |
| 1777966937 | 12.78° C | 74% | 1011.7 hPa | 0 mm | - | - | - |
| 1777966336 | 12.22° C | 74% | 1011.8 hPa | 0 mm | - | - | - |
| 1777965736 | 12.22° C | 75% | 1011.9 hPa | 0 mm | - | - | - |
| 1777965137 | 12.22° C | 77% | 1012.1 hPa | 0 mm | - | - | - |
| 1777964536 | 12.22° C | 78% | 1012 hPa | 0 mm | - | - | - |
| 1777963937 | 11.67° C | 79% | 1012.1 hPa | 0 mm | - | - | - |
| 1777963336 | 11.67° C | 81% | 1012.2 hPa | 0 mm | - | - | - |
| 1777962737 | 11.67° C | 82% | 1012.2 hPa | 0 mm | - | - | - |
| 1777962136 | 11.11° C | 83% | 1012.3 hPa | 0 mm | - | - | - |
| 1777961536 | 11.11° C | 83% | 1012.3 hPa | 0 mm | - | - | - |
| 1777960936 | 11.11° C | 83% | 1012.3 hPa | 0 mm | - | - | - |
| 1777960336 | 11.11° C | 83% | 1012.3 hPa | 0 mm | - | - | - |
* Rain latest hour (hover to see other rain measurements)
** Current wind speed in m/s (hover to see current wind gust speed)